Year,Month,Day,Hour,Minute,Value (Times are PST for temperature in C)
2016,07,15,00,00,15.90
2016,07,15,00,01,15.90
2016,07,15,00,02,15.90
2016,07,15,00,03,15.80
2016,07,15,00,04,15.80
2016,07,15,00,05,15.80
2016,07,15,00,06,15.80
2016,07,15,00,07,15.80
2016,07,15,00,08,15.80
2016,07,15,00,09,15.80
2016,07,15,00,10,15.80
2016,07,15,00,11,15.80
2016,07,15,00,12,15.80
2016,07,15,00,13,15.80
2016,07,15,00,14,15.80
2016,07,15,00,15,15.80
2016,07,15,00,16,15.80
2016,07,15,00,17,15.80
2016,07,15,00,18,15.80
2016,07,15,00,19,15.80
2016,07,15,00,20,15.80
2016,07,15,00,21,15.80
2016,07,15,00,22,15.70
2016,07,15,00,23,15.70
2016,07,15,00,24,15.70
2016,07,15,00,25,15.70
2016,07,15,00,26,15.70
2016,07,15,00,27,15.70
2016,07,15,00,28,15.60
2016,07,15,00,29,15.60
2016,07,15,00,30,15.60
2016,07,15,00,31,15.60
2016,07,15,00,32,15.60
2016,07,15,00,33,15.60
2016,07,15,00,34,15.60
2016,07,15,00,35,15.60
2016,07,15,00,36,15.60
2016,07,15,00,37,15.60
2016,07,15,00,38,15.60
2016,07,15,00,39,15.60
2016,07,15,00,40,15.50
2016,07,15,00,41,15.50
2016,07,15,00,42,15.50
2016,07,15,00,43,15.50
2016,07,15,00,44,15.50
2016,07,15,00,45,15.50
2016,07,15,00,46,15.50
2016,07,15,00,47,15.50
2016,07,15,00,48,15.50
2016,07,15,00,49,15.50
2016,07,15,00,50,15.40
2016,07,15,00,51,15.40
2016,07,15,00,52,15.40
2016,07,15,00,53,15.40
2016,07,15,00,54,15.40
2016,07,15,00,55,15.40
2016,07,15,00,56,15.40
2016,07,15,00,57,15.30
2016,07,15,00,58,15.30
2016,07,15,00,59,15.30
2016,07,15,01,00,15.30
2016,07,15,01,01,15.30
2016,07,15,01,02,15.30
2016,07,15,01,03,15.30
2016,07,15,01,04,15.30
2016,07,15,01,05,15.30
2016,07,15,01,06,15.30
2016,07,15,01,07,15.30
2016,07,15,01,08,15.30
2016,07,15,01,09,15.30
2016,07,15,01,10,15.30
2016,07,15,01,11,15.30
2016,07,15,01,12,15.30
2016,07,15,01,13,15.30
2016,07,15,01,14,15.30
2016,07,15,01,15,15.20
2016,07,15,01,16,15.20
2016,07,15,01,17,15.20
2016,07,15,01,18,15.20
2016,07,15,01,19,15.20
2016,07,15,01,20,15.20
2016,07,15,01,21,15.20
2016,07,15,01,22,15.10
2016,07,15,01,23,15.10
2016,07,15,01,24,15.10
2016,07,15,01,25,15.10
2016,07,15,01,26,15.10
2016,07,15,01,27,15.10
2016,07,15,01,28,15.10
2016,07,15,01,29,15.00
2016,07,15,01,30,15.00
2016,07,15,01,31,15.00
2016,07,15,01,32,15.00
2016,07,15,01,33,15.00
2016,07,15,01,34,15.00
2016,07,15,01,35,15.00
2016,07,15,01,36,14.90
2016,07,15,01,37,14.90
2016,07,15,01,38,14.90
2016,07,15,01,39,14.90
2016,07,15,01,40,14.90
2016,07,15,01,41,14.90
2016,07,15,01,42,14.90
2016,07,15,01,43,14.80
2016,07,15,01,44,14.80
2016,07,15,01,45,14.80
2016,07,15,01,46,14.80
2016,07,15,01,47,14.80
2016,07,15,01,48,14.80
2016,07,15,01,49,14.80
2016,07,15,01,50,14.80
2016,07,15,01,51,14.80
2016,07,15,01,52,14.80
2016,07,15,01,53,14.80
2016,07,15,01,54,14.70
2016,07,15,01,55,14.70
2016,07,15,01,56,14.70
2016,07,15,01,57,14.70
2016,07,15,01,58,14.70
2016,07,15,01,59,14.70
2016,07,15,02,00,14.70
2016,07,15,02,01,14.70
2016,07,15,02,02,14.70
2016,07,15,02,03,14.60
2016,07,15,02,04,14.60
2016,07,15,02,05,14.60
2016,07,15,02,06,14.60
2016,07,15,02,07,14.50
2016,07,15,02,08,14.50
2016,07,15,02,09,14.40
2016,07,15,02,10,14.40
2016,07,15,02,11,14.30
2016,07,15,02,12,14.20
2016,07,15,02,13,14.20
2016,07,15,02,14,14.20
2016,07,15,02,15,14.20
2016,07,15,02,16,14.10
2016,07,15,02,17,14.10
2016,07,15,02,18,14.10
2016,07,15,02,19,14.00
2016,07,15,02,20,14.00
2016,07,15,02,21,14.00
2016,07,15,02,22,13.90
2016,07,15,02,23,13.90
2016,07,15,02,24,13.90
2016,07,15,02,25,13.90
2016,07,15,02,26,13.90
2016,07,15,02,27,13.80
2016,07,15,02,28,13.80
2016,07,15,02,29,13.80
2016,07,15,02,30,13.80
2016,07,15,02,31,13.70
2016,07,15,02,32,13.70
2016,07,15,02,33,13.70
2016,07,15,02,34,13.70
2016,07,15,02,35,13.70
2016,07,15,02,36,13.60
2016,07,15,02,37,13.60
2016,07,15,02,38,13.60
2016,07,15,02,39,13.60
2016,07,15,02,40,13.60
2016,07,15,02,41,13.50
2016,07,15,02,42,13.50
2016,07,15,02,43,13.50
2016,07,15,02,44,13.50
2016,07,15,02,45,13.40
2016,07,15,02,46,13.40
2016,07,15,02,47,13.30
2016,07,15,02,48,13.30
2016,07,15,02,49,13.30
2016,07,15,02,50,13.30
2016,07,15,02,51,13.30
2016,07,15,02,52,13.30
2016,07,15,02,53,13.30
2016,07,15,02,54,13.30
2016,07,15,02,55,13.30
2016,07,15,02,56,13.30
2016,07,15,02,57,13.30
2016,07,15,02,58,13.20
2016,07,15,02,59,13.20
2016,07,15,03,00,13.20
2016,07,15,03,01,13.20
2016,07,15,03,02,13.20
2016,07,15,03,03,13.20
2016,07,15,03,04,13.20
2016,07,15,03,05,13.20
2016,07,15,03,06,13.20
2016,07,15,03,07,13.10
2016,07,15,03,08,13.10
2016,07,15,03,09,13.10
2016,07,15,03,10,13.10
2016,07,15,03,11,13.10
2016,07,15,03,12,13.10
2016,07,15,03,13,13.00
2016,07,15,03,14,13.00
2016,07,15,03,15,13.00
2016,07,15,03,16,13.00
2016,07,15,03,17,13.00
2016,07,15,03,18,13.00
2016,07,15,03,19,13.00
2016,07,15,03,20,13.10
2016,07,15,03,21,13.10
2016,07,15,03,22,13.10
2016,07,15,03,23,13.10
2016,07,15,03,24,13.10
2016,07,15,03,25,13.10
2016,07,15,03,26,13.10
2016,07,15,03,27,13.10
2016,07,15,03,28,13.10
2016,07,15,03,29,13.00
2016,07,15,03,30,13.00
2016,07,15,03,31,13.00
2016,07,15,03,32,13.00
2016,07,15,03,33,13.00
2016,07,15,03,34,13.00
2016,07,15,03,35,12.90
2016,07,15,03,36,12.90
2016,07,15,03,37,12.90
2016,07,15,03,38,12.90
2016,07,15,03,39,12.90
2016,07,15,03,40,12.90
2016,07,15,03,41,12.90
2016,07,15,03,42,12.80
2016,07,15,03,43,12.80
2016,07,15,03,44,12.80
2016,07,15,03,45,12.80
2016,07,15,03,46,12.80
2016,07,15,03,47,12.80
2016,07,15,03,48,12.80
2016,07,15,03,49,12.80
2016,07,15,03,50,12.80
2016,07,15,03,51,12.80
2016,07,15,03,52,12.80
2016,07,15,03,53,12.80
2016,07,15,03,54,12.80
2016,07,15,03,55,12.80
2016,07,15,03,56,12.80
2016,07,15,03,57,12.80
2016,07,15,03,58,12.80
2016,07,15,03,59,12.80
2016,07,15,04,00,12.80
2016,07,15,04,01,12.80
2016,07,15,04,02,12.80
2016,07,15,04,03,12.80
2016,07,15,04,04,12.80
2016,07,15,04,05,12.70
2016,07,15,04,06,12.70
2016,07,15,04,07,12.70
2016,07,15,04,08,12.70
2016,07,15,04,09,12.70
2016,07,15,04,10,12.70
2016,07,15,04,11,12.70
2016,07,15,04,12,12.60
2016,07,15,04,13,12.60
2016,07,15,04,14,12.60
2016,07,15,04,15,12.50
2016,07,15,04,16,12.50
2016,07,15,04,17,12.50
2016,07,15,04,18,12.40
2016,07,15,04,19,12.40
2016,07,15,04,20,12.40
2016,07,15,04,21,12.30
2016,07,15,04,22,12.30
2016,07,15,04,23,12.30
2016,07,15,04,24,12.30
2016,07,15,04,25,12.30
2016,07,15,04,26,12.30
2016,07,15,04,27,12.30
2016,07,15,04,28,12.30
2016,07,15,04,29,12.30
2016,07,15,04,30,12.20
2016,07,15,04,31,12.20
2016,07,15,04,32,12.20
2016,07,15,04,33,12.20
2016,07,15,04,34,12.20
2016,07,15,04,35,12.30
2016,07,15,04,36,12.30
2016,07,15,04,37,12.30
2016,07,15,04,38,12.30
2016,07,15,04,39,12.30
2016,07,15,04,40,12.30
2016,07,15,04,41,12.30
2016,07,15,04,42,12.30
2016,07,15,04,43,12.30
2016,07,15,04,44,12.20
2016,07,15,04,45,12.20
2016,07,15,04,46,12.20
2016,07,15,04,47,12.20
2016,07,15,04,48,12.20
2016,07,15,04,49,12.20
2016,07,15,04,50,12.10
2016,07,15,04,51,12.10
2016,07,15,04,52,12.10
2016,07,15,04,53,12.10
2016,07,15,04,54,12.10
2016,07,15,04,55,12.10
2016,07,15,04,56,12.00
2016,07,15,04,57,12.00
2016,07,15,04,58,12.00
2016,07,15,04,59,12.00
2016,07,15,05,00,12.00
2016,07,15,05,01,11.90
2016,07,15,05,02,11.90
2016,07,15,05,03,11.90
2016,07,15,05,04,11.90
2016,07,15,05,05,11.90
2016,07,15,05,06,11.80
2016,07,15,05,07,11.80
2016,07,15,05,08,11.80
2016,07,15,05,09,11.80
2016,07,15,05,10,11.80
2016,07,15,05,11,11.80
2016,07,15,05,12,11.80
2016,07,15,05,13,11.80
2016,07,15,05,14,11.80
2016,07,15,05,15,11.80
2016,07,15,05,16,11.80
2016,07,15,05,17,11.80
2016,07,15,05,18,11.80
2016,07,15,05,19,11.80
2016,07,15,05,20,11.80
2016,07,15,05,21,11.80
2016,07,15,05,22,11.80
2016,07,15,05,23,11.80
2016,07,15,05,24,11.70
2016,07,15,05,25,11.70
2016,07,15,05,26,11.70
2016,07,15,05,27,11.70
2016,07,15,05,28,11.70
2016,07,15,05,29,11.70
2016,07,15,05,30,11.70
2016,07,15,05,31,11.60
2016,07,15,05,32,11.60
2016,07,15,05,33,11.60
2016,07,15,05,34,11.60
2016,07,15,05,35,11.60
2016,07,15,05,36,11.60
2016,07,15,05,37,11.60
2016,07,15,05,38,11.60
2016,07,15,05,39,11.60
2016,07,15,05,40,11.60
2016,07,15,05,41,11.60
2016,07,15,05,42,11.60
2016,07,15,05,43,11.60
2016,07,15,05,44,11.60
2016,07,15,05,45,11.60
2016,07,15,05,46,11.60
2016,07,15,05,47,11.60
2016,07,15,05,48,11.60
2016,07,15,05,49,11.60
2016,07,15,05,50,11.60
2016,07,15,05,51,11.60
2016,07,15,05,52,11.60
2016,07,15,05,53,11.60
2016,07,15,05,54,11.60
2016,07,15,05,55,11.60
2016,07,15,05,56,11.60
2016,07,15,05,57,11.60
2016,07,15,05,58,11.60
2016,07,15,05,59,11.60
2016,07,15,06,00,11.60
2016,07,15,06,01,11.60
2016,07,15,06,02,11.60
2016,07,15,06,03,11.60
2016,07,15,06,04,11.60
2016,07,15,06,05,11.60
2016,07,15,06,06,11.60
2016,07,15,06,07,11.60
2016,07,15,06,08,11.60
2016,07,15,06,09,11.60
2016,07,15,06,10,11.60
2016,07,15,06,11,11.60
2016,07,15,06,12,11.60
2016,07,15,06,13,11.60
2016,07,15,06,14,11.60
2016,07,15,06,15,11.60
2016,07,15,06,16,11.60
2016,07,15,06,17,11.60
2016,07,15,06,18,11.60
2016,07,15,06,19,11.60
2016,07,15,06,20,11.60
2016,07,15,06,21,11.60
2016,07,15,06,22,11.70
2016,07,15,06,23,11.70
2016,07,15,06,24,11.70
2016,07,15,06,25,11.80
2016,07,15,06,26,11.80
2016,07,15,06,27,11.80
2016,07,15,06,28,11.80
2016,07,15,06,29,11.80
2016,07,15,06,30,11.80
2016,07,15,06,31,11.80
2016,07,15,06,32,11.90
2016,07,15,06,33,11.90
2016,07,15,06,34,12.00
2016,07,15,06,35,12.00
2016,07,15,06,36,12.10
2016,07,15,06,37,12.10
2016,07,15,06,38,12.20
2016,07,15,06,39,12.20
2016,07,15,06,40,12.20
2016,07,15,06,41,12.30
2016,07,15,06,42,12.30
2016,07,15,06,43,12.30
2016,07,15,06,44,12.30
2016,07,15,06,45,12.30
2016,07,15,06,46,12.30
2016,07,15,06,47,12.40
2016,07,15,06,48,12.40
2016,07,15,06,49,12.50
2016,07,15,06,50,12.50
2016,07,15,06,51,12.50
2016,07,15,06,52,12.60
2016,07,15,06,53,12.60
2016,07,15,06,54,12.60
2016,07,15,06,55,12.60
2016,07,15,06,56,12.70
2016,07,15,06,57,12.70
2016,07,15,06,58,12.80
2016,07,15,06,59,12.80
2016,07,15,07,00,12.80
2016,07,15,07,01,12.90
2016,07,15,07,02,12.90
2016,07,15,07,03,12.90
2016,07,15,07,04,12.90
2016,07,15,07,05,13.00
2016,07,15,07,06,13.00
2016,07,15,07,07,13.00
2016,07,15,07,08,13.00
2016,07,15,07,09,13.00
2016,07,15,07,10,13.10
2016,07,15,07,11,13.10
2016,07,15,07,12,13.10
2016,07,15,07,13,13.20
2016,07,15,07,14,13.20
2016,07,15,07,15,13.20
2016,07,15,07,16,13.20
2016,07,15,07,17,13.30
2016,07,15,07,18,13.30
2016,07,15,07,19,13.30
2016,07,15,07,20,13.30
2016,07,15,07,21,13.30
2016,07,15,07,22,13.40
2016,07,15,07,23,13.40
2016,07,15,07,24,13.50
2016,07,15,07,25,13.50
2016,07,15,07,26,13.50
2016,07,15,07,27,13.60
2016,07,15,07,28,13.60
2016,07,15,07,29,13.60
2016,07,15,07,30,13.60
2016,07,15,07,31,13.60
2016,07,15,07,32,13.60
2016,07,15,07,33,13.70
2016,07,15,07,34,13.70
2016,07,15,07,35,13.70
2016,07,15,07,36,13.70
2016,07,15,07,37,13.70
2016,07,15,07,38,13.70
2016,07,15,07,39,13.70
2016,07,15,07,40,13.80
2016,07,15,07,41,13.80
2016,07,15,07,42,13.80
2016,07,15,07,43,13.90
2016,07,15,07,44,13.90
2016,07,15,07,45,13.90
2016,07,15,07,46,13.90
2016,07,15,07,47,14.00
2016,07,15,07,48,14.00
2016,07,15,07,49,14.10
2016,07,15,07,50,14.10
2016,07,15,07,51,14.20
2016,07,15,07,52,14.20
2016,07,15,07,53,14.30
2016,07,15,07,54,14.40
2016,07,15,07,55,14.40
2016,07,15,07,56,14.50
2016,07,15,07,57,14.50
2016,07,15,07,58,14.60
2016,07,15,07,59,14.60
2016,07,15,08,00,14.70
2016,07,15,08,01,14.70
2016,07,15,08,02,14.80
2016,07,15,08,03,14.80
2016,07,15,08,04,14.80
2016,07,15,08,05,14.90
2016,07,15,08,06,14.90
2016,07,15,08,07,15.00
2016,07,15,08,08,15.00
2016,07,15,08,09,15.10
2016,07,15,08,10,15.20
2016,07,15,08,11,15.30
2016,07,15,08,12,15.40
2016,07,15,08,13,15.50
2016,07,15,08,14,15.50
2016,07,15,08,15,15.60
2016,07,15,08,16,15.70
2016,07,15,08,17,15.80
2016,07,15,08,18,15.80
2016,07,15,08,19,15.80
2016,07,15,08,20,15.80
2016,07,15,08,21,15.90
2016,07,15,08,22,16.00
2016,07,15,08,23,16.10
2016,07,15,08,24,16.20
2016,07,15,08,25,16.20
2016,07,15,08,26,16.30
2016,07,15,08,27,16.40
2016,07,15,08,28,16.40
2016,07,15,08,29,16.50
2016,07,15,08,30,16.60
2016,07,15,08,31,16.60
2016,07,15,08,32,16.70
2016,07,15,08,33,16.70
2016,07,15,08,34,16.70
2016,07,15,08,35,16.80
2016,07,15,08,36,16.90
2016,07,15,08,37,16.90
2016,07,15,08,38,17.00
2016,07,15,08,39,17.10
2016,07,15,08,40,17.10
2016,07,15,08,41,17.10
2016,07,15,08,42,17.10
2016,07,15,08,43,17.20
2016,07,15,08,44,17.20
2016,07,15,08,45,17.30
2016,07,15,08,46,17.30
2016,07,15,08,47,17.30
2016,07,15,08,48,17.30
2016,07,15,08,49,17.20
2016,07,15,08,50,17.20
2016,07,15,08,51,17.10
2016,07,15,08,52,17.10
2016,07,15,08,53,17.00
2016,07,15,08,54,16.90
2016,07,15,08,55,16.80
2016,07,15,08,56,16.80
2016,07,15,08,57,16.70
2016,07,15,08,58,16.70
2016,07,15,08,59,16.70
2016,07,15,09,00,16.70
2016,07,15,09,01,16.70
2016,07,15,09,02,16.70
2016,07,15,09,03,16.70
2016,07,15,09,04,16.60
2016,07,15,09,05,16.60
2016,07,15,09,06,16.60
2016,07,15,09,07,16.50
2016,07,15,09,08,16.40
2016,07,15,09,09,16.40
2016,07,15,09,10,16.40
2016,07,15,09,11,16.40
2016,07,15,09,12,16.40
2016,07,15,09,13,16.40
2016,07,15,09,14,16.40
2016,07,15,09,15,16.50
2016,07,15,09,16,16.70
2016,07,15,09,17,16.70
2016,07,15,09,18,16.70
2016,07,15,09,19,16.70
2016,07,15,09,20,16.70
2016,07,15,09,21,16.80
2016,07,15,09,22,16.90
2016,07,15,09,23,16.90
2016,07,15,09,24,17.00
2016,07,15,09,25,17.00
2016,07,15,09,26,17.10
2016,07,15,09,27,17.20
2016,07,15,09,28,17.20
2016,07,15,09,29,17.10
2016,07,15,09,30,17.10
2016,07,15,09,31,17.10
2016,07,15,09,32,17.00
2016,07,15,09,33,17.00
2016,07,15,09,34,16.90
2016,07,15,09,35,16.90
2016,07,15,09,36,16.90
2016,07,15,09,37,17.00
2016,07,15,09,38,17.10
2016,07,15,09,39,17.20
2016,07,15,09,40,17.20
2016,07,15,09,41,17.10
2016,07,15,09,42,17.10
2016,07,15,09,43,17.10
2016,07,15,09,44,17.20
2016,07,15,09,45,17.40
2016,07,15,09,46,17.60
2016,07,15,09,47,17.70
2016,07,15,09,48,17.70
2016,07,15,09,49,17.70
2016,07,15,09,50,17.70
2016,07,15,09,51,17.60
2016,07,15,09,52,17.50
2016,07,15,09,53,17.40
2016,07,15,09,54,17.30
2016,07,15,09,55,17.40
2016,07,15,09,56,17.40
2016,07,15,09,57,17.50
2016,07,15,09,58,17.50
2016,07,15,09,59,17.50
2016,07,15,10,00,17.50
2016,07,15,10,01,17.50
2016,07,15,10,02,17.50
2016,07,15,10,03,17.60
2016,07,15,10,04,17.60
2016,07,15,10,05,17.60
2016,07,15,10,06,17.60
2016,07,15,10,07,17.60
2016,07,15,10,08,17.50
2016,07,15,10,09,17.50
2016,07,15,10,10,17.40
2016,07,15,10,11,17.30
2016,07,15,10,12,17.30
2016,07,15,10,13,17.40
2016,07,15,10,14,17.40
2016,07,15,10,15,17.50
2016,07,15,10,16,17.70
2016,07,15,10,17,17.70
2016,07,15,10,18,17.90
2016,07,15,10,19,18.00
2016,07,15,10,20,18.10
2016,07,15,10,21,18.20
2016,07,15,10,22,18.20
2016,07,15,10,23,18.10
2016,07,15,10,24,18.10
2016,07,15,10,25,18.00
2016,07,15,10,26,18.00
2016,07,15,10,27,17.90
2016,07,15,10,28,17.90
2016,07,15,10,29,17.90
2016,07,15,10,30,17.90
2016,07,15,10,31,17.80
2016,07,15,10,32,17.80
2016,07,15,10,33,17.70
2016,07,15,10,34,17.60
2016,07,15,10,35,17.50
2016,07,15,10,36,17.40
2016,07,15,10,37,17.40
2016,07,15,10,38,17.50
2016,07,15,10,39,17.60
2016,07,15,10,40,17.60
2016,07,15,10,41,17.50
2016,07,15,10,42,17.50
2016,07,15,10,43,17.30
2016,07,15,10,44,17.30
2016,07,15,10,45,17.30
2016,07,15,10,46,17.30
2016,07,15,10,47,17.30
2016,07,15,10,48,17.40
2016,07,15,10,49,17.40
2016,07,15,10,50,17.40
2016,07,15,10,51,17.40
2016,07,15,10,52,17.30
2016,07,15,10,53,17.40
2016,07,15,10,54,17.40
2016,07,15,10,55,17.40
2016,07,15,10,56,17.40
2016,07,15,10,57,17.60
2016,07,15,10,58,17.70
2016,07,15,10,59,17.80
2016,07,15,11,00,17.80
2016,07,15,11,01,17.70
2016,07,15,11,02,17.70
2016,07,15,11,03,17.80
2016,07,15,11,04,17.80
2016,07,15,11,05,17.80
2016,07,15,11,06,17.90
2016,07,15,11,07,18.10
2016,07,15,11,08,18.20
2016,07,15,11,09,18.20
2016,07,15,11,10,18.10
2016,07,15,11,11,18.00
2016,07,15,11,12,17.90
2016,07,15,11,13,17.80
2016,07,15,11,14,17.60
2016,07,15,11,15,17.50
2016,07,15,11,16,17.40
2016,07,15,11,17,17.50
2016,07,15,11,18,17.50
2016,07,15,11,19,17.60
2016,07,15,11,20,17.70
2016,07,15,11,21,17.70
2016,07,15,11,22,17.70
2016,07,15,11,23,17.80
2016,07,15,11,24,17.70
2016,07,15,11,25,17.60
2016,07,15,11,26,17.60
2016,07,15,11,27,17.70
2016,07,15,11,28,17.80
2016,07,15,11,29,18.00
2016,07,15,11,30,18.20
2016,07,15,11,31,18.20
2016,07,15,11,32,18.20
2016,07,15,11,33,18.10
2016,07,15,11,34,18.10
2016,07,15,11,35,18.20
2016,07,15,11,36,18.30
2016,07,15,11,37,18.30
2016,07,15,11,38,18.30
2016,07,15,11,39,18.30
2016,07,15,11,40,18.30
2016,07,15,11,41,18.30
2016,07,15,11,42,18.30
2016,07,15,11,43,18.40
2016,07,15,11,44,18.40
2016,07,15,11,45,18.40
2016,07,15,11,46,18.30
2016,07,15,11,47,18.30
2016,07,15,11,48,18.50
2016,07,15,11,49,18.50
2016,07,15,11,50,18.60
2016,07,15,11,51,18.50
2016,07,15,11,52,18.60
2016,07,15,11,53,18.60
2016,07,15,11,54,18.60
2016,07,15,11,55,18.70
2016,07,15,11,56,18.70
2016,07,15,11,57,18.90
2016,07,15,11,58,18.90
2016,07,15,11,59,18.90
2016,07,15,12,00,18.90
2016,07,15,12,01,18.80
2016,07,15,12,02,18.70
2016,07,15,12,03,18.70
2016,07,15,12,04,18.90
2016,07,15,12,05,18.90
2016,07,15,12,06,18.80
2016,07,15,12,07,18.90
2016,07,15,12,08,18.90
2016,07,15,12,09,18.90
2016,07,15,12,10,18.90
2016,07,15,12,11,19.00
2016,07,15,12,12,19.10
2016,07,15,12,13,19.10
2016,07,15,12,14,19.30
2016,07,15,12,15,19.40
2016,07,15,12,16,19.30
2016,07,15,12,17,19.30
2016,07,15,12,18,19.40
2016,07,15,12,19,19.60
2016,07,15,12,20,19.70
2016,07,15,12,21,19.80
2016,07,15,12,22,19.90
2016,07,15,12,23,19.90
2016,07,15,12,24,20.00
2016,07,15,12,25,20.10
2016,07,15,12,26,20.20
2016,07,15,12,27,20.20
2016,07,15,12,28,20.30
2016,07,15,12,29,20.30
2016,07,15,12,30,20.20
2016,07,15,12,31,19.90
2016,07,15,12,32,19.70
2016,07,15,12,33,19.50
2016,07,15,12,34,19.50
2016,07,15,12,35,19.50
2016,07,15,12,36,19.40
2016,07,15,12,37,19.20
2016,07,15,12,38,19.00
2016,07,15,12,39,18.90
2016,07,15,12,40,18.90
2016,07,15,12,41,18.90
2016,07,15,12,42,19.00
2016,07,15,12,43,19.10
2016,07,15,12,44,19.20
2016,07,15,12,45,19.40
2016,07,15,12,46,19.30
2016,07,15,12,47,19.30
2016,07,15,12,48,19.30
2016,07,15,12,49,19.30
2016,07,15,12,50,19.40
2016,07,15,12,51,19.40
2016,07,15,12,52,19.50
2016,07,15,12,53,19.50
2016,07,15,12,54,19.50
2016,07,15,12,55,19.40
2016,07,15,12,56,19.30
2016,07,15,12,57,19.40
2016,07,15,12,58,19.60
2016,07,15,12,59,19.70
2016,07,15,13,00,19.60
2016,07,15,13,01,19.40
2016,07,15,13,02,19.20
2016,07,15,13,03,19.20
2016,07,15,13,04,19.20
2016,07,15,13,05,19.20
2016,07,15,13,06,19.20
2016,07,15,13,07,19.20
2016,07,15,13,08,19.30
2016,07,15,13,09,19.40
2016,07,15,13,10,19.50
2016,07,15,13,11,19.60
2016,07,15,13,12,19.60
2016,07,15,13,13,19.60
2016,07,15,13,14,19.40
2016,07,15,13,15,19.40
2016,07,15,13,16,19.40
2016,07,15,13,17,19.40
2016,07,15,13,18,19.40
2016,07,15,13,19,19.30
2016,07,15,13,20,19.20
2016,07,15,13,21,19.20
2016,07,15,13,22,19.10
2016,07,15,13,23,19.10
2016,07,15,13,24,19.10
2016,07,15,13,25,19.10
2016,07,15,13,26,18.90
2016,07,15,13,27,18.90
2016,07,15,13,28,18.90
2016,07,15,13,29,19.00
2016,07,15,13,30,19.10
2016,07,15,13,31,19.30
2016,07,15,13,32,19.40
2016,07,15,13,33,19.60
2016,07,15,13,34,19.70
2016,07,15,13,35,19.70
2016,07,15,13,36,19.60
2016,07,15,13,37,19.50
2016,07,15,13,38,19.40
2016,07,15,13,39,19.40
2016,07,15,13,40,19.50
2016,07,15,13,41,19.50
2016,07,15,13,42,19.50
2016,07,15,13,43,19.50
2016,07,15,13,44,19.50
2016,07,15,13,45,19.50
2016,07,15,13,46,19.60
2016,07,15,13,47,19.60
2016,07,15,13,48,19.70
2016,07,15,13,49,19.70
2016,07,15,13,50,19.80
2016,07,15,13,51,19.90
2016,07,15,13,52,19.90
2016,07,15,13,53,19.90
2016,07,15,13,54,19.90
2016,07,15,13,55,19.90
2016,07,15,13,56,19.90
2016,07,15,13,57,20.00
2016,07,15,13,58,20.00
2016,07,15,13,59,20.20
2016,07,15,14,00,20.20
2016,07,15,14,01,20.20
2016,07,15,14,02,20.20
2016,07,15,14,03,20.20
2016,07,15,14,04,20.20
2016,07,15,14,05,20.20
2016,07,15,14,06,20.20
2016,07,15,14,07,20.00
2016,07,15,14,08,19.90
2016,07,15,14,09,19.90
2016,07,15,14,10,20.00
2016,07,15,14,11,20.20
2016,07,15,14,12,20.20
2016,07,15,14,13,20.30
2016,07,15,14,14,20.40
2016,07,15,14,15,20.50
2016,07,15,14,16,20.60
2016,07,15,14,17,20.70
2016,07,15,14,18,20.70
2016,07,15,14,19,20.80
2016,07,15,14,20,20.80
2016,07,15,14,21,20.70
2016,07,15,14,22,20.80
2016,07,15,14,23,20.80
2016,07,15,14,24,20.70
2016,07,15,14,25,20.60
2016,07,15,14,26,20.50
2016,07,15,14,27,20.50
2016,07,15,14,28,20.40
2016,07,15,14,29,20.50
2016,07,15,14,30,20.50
2016,07,15,14,31,20.60
2016,07,15,14,32,20.60
2016,07,15,14,33,20.70
2016,07,15,14,34,20.60
2016,07,15,14,35,20.70
2016,07,15,14,36,20.70
2016,07,15,14,37,20.70
2016,07,15,14,38,20.70
2016,07,15,14,39,20.90
2016,07,15,14,40,21.00
2016,07,15,14,41,21.00
2016,07,15,14,42,20.80
2016,07,15,14,43,20.70
2016,07,15,14,44,20.70
2016,07,15,14,45,20.60
2016,07,15,14,46,20.60
2016,07,15,14,47,20.50
2016,07,15,14,48,20.40
2016,07,15,14,49,20.40
2016,07,15,14,50,20.40
2016,07,15,14,51,20.50
2016,07,15,14,52,20.50
2016,07,15,14,53,20.50
2016,07,15,14,54,20.70
2016,07,15,14,55,20.80
2016,07,15,14,56,20.70
2016,07,15,14,57,20.60
2016,07,15,14,58,20.60
2016,07,15,14,59,20.50
2016,07,15,15,00,20.50
2016,07,15,15,01,20.50
2016,07,15,15,02,20.40
2016,07,15,15,03,20.50
2016,07,15,15,04,20.50
2016,07,15,15,05,20.50
2016,07,15,15,06,20.30
2016,07,15,15,07,20.20
2016,07,15,15,08,20.20
2016,07,15,15,09,20.20
2016,07,15,15,10,20.30
2016,07,15,15,11,20.20
2016,07,15,15,12,20.20
2016,07,15,15,13,20.30
2016,07,15,15,14,20.40
2016,07,15,15,15,20.50
2016,07,15,15,16,20.60
2016,07,15,15,17,20.50
2016,07,15,15,18,20.40
2016,07,15,15,19,20.40
2016,07,15,15,20,20.50
2016,07,15,15,21,20.70
2016,07,15,15,22,20.80
2016,07,15,15,23,20.90
2016,07,15,15,24,21.00
2016,07,15,15,25,21.00
2016,07,15,15,26,21.00
2016,07,15,15,27,21.00
2016,07,15,15,28,20.90
2016,07,15,15,29,20.80
2016,07,15,15,30,20.80
2016,07,15,15,31,20.90
2016,07,15,15,32,20.90
2016,07,15,15,33,20.80
2016,07,15,15,34,20.90
2016,07,15,15,35,21.00
2016,07,15,15,36,21.10
2016,07,15,15,37,21.20
2016,07,15,15,38,21.30
2016,07,15,15,39,21.20
2016,07,15,15,40,21.10
2016,07,15,15,41,21.00
2016,07,15,15,42,20.80
2016,07,15,15,43,20.60
2016,07,15,15,44,20.40
2016,07,15,15,45,20.20
2016,07,15,15,46,20.00
2016,07,15,15,47,19.90
2016,07,15,15,48,19.90
2016,07,15,15,49,20.00
2016,07,15,15,50,20.00
2016,07,15,15,51,19.90
2016,07,15,15,52,19.90
2016,07,15,15,53,19.70
2016,07,15,15,54,19.60
2016,07,15,15,55,19.40
2016,07,15,15,56,19.30
2016,07,15,15,57,19.30
2016,07,15,15,58,19.30
2016,07,15,15,59,19.20
2016,07,15,16,00,19.30
2016,07,15,16,01,19.30
2016,07,15,16,02,19.40
2016,07,15,16,03,19.50
2016,07,15,16,04,19.50
2016,07,15,16,05,19.50
2016,07,15,16,06,19.40
2016,07,15,16,07,19.30
2016,07,15,16,08,19.40
2016,07,15,16,09,19.40
2016,07,15,16,10,19.50
2016,07,15,16,11,19.40
2016,07,15,16,12,19.40
2016,07,15,16,13,19.30
2016,07,15,16,14,19.30
2016,07,15,16,15,19.30
2016,07,15,16,16,19.30
2016,07,15,16,17,19.30
2016,07,15,16,18,19.20
2016,07,15,16,19,19.10
2016,07,15,16,20,19.00
2016,07,15,16,21,19.10
2016,07,15,16,22,19.00
2016,07,15,16,23,18.90
2016,07,15,16,24,18.90
2016,07,15,16,25,18.90
2016,07,15,16,26,19.10
2016,07,15,16,27,19.20
2016,07,15,16,28,19.10
2016,07,15,16,29,19.00
2016,07,15,16,30,18.90
2016,07,15,16,31,18.90
2016,07,15,16,32,18.90
2016,07,15,16,33,18.90
2016,07,15,16,34,19.00
2016,07,15,16,35,19.10
2016,07,15,16,36,19.20
2016,07,15,16,37,19.30
2016,07,15,16,38,19.20
2016,07,15,16,39,19.30
2016,07,15,16,40,19.40
2016,07,15,16,41,19.60
2016,07,15,16,42,19.70
2016,07,15,16,43,19.70
2016,07,15,16,44,19.60
2016,07,15,16,45,19.50
2016,07,15,16,46,19.40
2016,07,15,16,47,19.30
2016,07,15,16,48,19.20
2016,07,15,16,49,19.10
2016,07,15,16,50,19.00
2016,07,15,16,51,18.90
2016,07,15,16,52,18.90
2016,07,15,16,53,19.00
2016,07,15,16,54,19.10
2016,07,15,16,55,19.10
2016,07,15,16,56,19.00
2016,07,15,16,57,18.90
2016,07,15,16,58,18.90
2016,07,15,16,59,19.00
2016,07,15,17,00,19.00
2016,07,15,17,01,18.90
2016,07,15,17,02,19.00
2016,07,15,17,03,19.10
2016,07,15,17,04,19.10
2016,07,15,17,05,19.10
2016,07,15,17,06,19.10
2016,07,15,17,07,19.10
2016,07,15,17,08,19.10
2016,07,15,17,09,19.20
2016,07,15,17,10,19.30
2016,07,15,17,11,19.40
2016,07,15,17,12,19.40
2016,07,15,17,13,19.40
2016,07,15,17,14,19.50
2016,07,15,17,15,19.60
2016,07,15,17,16,19.60
2016,07,15,17,17,19.80
2016,07,15,17,18,19.90
2016,07,15,17,19,19.90